This demonstration page uses our WeatherBlox Daily Observations layout. Learn more.

Left ArrowRight Arrow

36.17497, -115.13722

Hourly Observations for January 10, 2017

Temp ( °F °C ) Dew Point ( °F °C ) Humidity (%) Winds ( mph kmh ) Pressure ( in mb ) Visibility ( mi km ) Precip ( " mm )
12:53 am 00:53 Clear 54 12.2 26 -3.3 34 34 WNW 3 6 29.96 1015 10 16 N/A
1:53 am 01:53 Clear 53 11.7 28 -2.2 38 38 SSW 6 9 29.96 1015 10 16 N/A
2:53 am 02:53 Clear 47 8.3 32 undefined 56 56 N N/A 29.98 1015 10 16 N/A
3:53 am 03:53 Clear 44 6.7 31 -0.6 60 60 N 6 9 29.98 1015 10 16 N/A
4:53 am 04:53 Clear 45 7.2 34 1.1 66 66 N N/A 29.96 1015 10 16 N/A
5:53 am 05:53 Clear 46 7.8 35 1.7 66 66 NNE 5 7 29.97 1015 10 16 N/A
6:53 am 06:53 Sunny 44 6.7 34 1.1 68 68 N 5 7 29.99 1016 10 16 N/A
7:53 am 07:53 Sunny 45 7.2 35 1.7 68 68 NW 5 7 30.01 1016 10 16 N/A
8:53 am 08:53 Sunny 50 10 33 0.6 52 52 SE 5 7 30.02 1017 10 16 N/A
9:53 am 09:53 Sunny 54 12.2 32 undefined 43 43 E 8 13 30.03 1017 10 16 N/A
10:53 am 10:53 Sunny 56 13.3 32 undefined 40 40 N N/A 30.00 1016 10 16 N/A
11:53 am 11:53 Sunny 61 16.1 32 undefined 34 34 S 17 28 29.92 1013 10 16 N/A
12:53 pm 12:53 Sunny 62 16.7 30 -1.1 30 30 S 15 24 29.89 1012 10 16 N/A
1:53 pm 13:53 Sunny 63 17.2 30 -1.1 29 29 S 17 28 29.86 1011 10 16 N/A
2:53 pm 14:53 Sunny 63 17.2 32 undefined 31 31 S 17 28 29.85 1011 10 16 N/A
3:53 pm 15:53 Sunny 62 16.7 32 undefined 32 32 SSW 10 17 29.87 1011 10 16 N/A
4:53 pm 16:53 Clear 60 15.6 30 -1.1 32 32 S 20 31 29.84 1010 10 16 N/A
5:53 pm 17:53 Clear 59 15 31 -0.6 35 35 S 16 26 29.85 1011 10 16 N/A
6:53 pm 18:53 Clear 57 13.9 32 undefined 39 39 S 12 19 29.86 1011 10 16 N/A
7:53 pm 19:53 Clear 57 13.9 35 1.7 44 44 S 14 22 29.86 1011 10 16 N/A
8:53 pm 20:53 Clear 55 12.8 36 2.2 49 49 S 17 28 29.85 1011 10 16 N/A
9:53 pm 21:53 Clear 55 12.8 37 2.8 51 51 S 16 26 29.83 1010 10 16 N/A
10:53 pm 22:53 Clear 54 12.2 37 2.8 53 53 SE 13 20 29.83 1010 10 16 N/A
11:53 pm 23:53 Clear 56 13.3 36 2.2 47 47 SSW 16 26 29.79 1009 10 16 N/A

Powered by AerisWeather